This is the latest recevied weather packets stored in our database for station/object KE0PRS. If no packets are shown the sender has not sent any weather packets the latest 10 day(s).
| Time | Temp. | Humidity | Pressure | Rain* | Wind** | Luminosity | Snow |
|---|---|---|---|---|---|---|---|
| 1787776274 | 33.89° C | 41% | 1019.5 hPa | 0 mm | - | 800 W/m² | - |
| 1787775973 | 33.89° C | 41% | 1019.5 hPa | 0 mm | - | 798 W/m² | - |
| 1787775668 | 33.89° C | 43% | 1019.4 hPa | 0 mm | - | 741 W/m² | - |
| 1787775366 | 33.33° C | 43% | 1019.6 hPa | 0 mm | - | 731 W/m² | - |
| 1787775061 | 33.89° C | 43% | 1019.5 hPa | 0 mm | - | 730 W/m² | - |
| 1787774760 | 33.89° C | 41% | 1019.8 hPa | 0 mm | - | 728 W/m² | - |
| 1787774455 | 33.89° C | 42% | 1019.5 hPa | 0 mm | - | 722 W/m² | - |
| 1787774154 | 33.33° C | 44% | 1019.6 hPa | 0 mm | - | 725 W/m² | - |
| 1787773853 | 33.33° C | 46% | 1019.6 hPa | 0 mm | - | 702 W/m² | - |
| 1787773552 | 33.89° C | 44% | 1019.9 hPa | 0 mm | - | 678 W/m² | - |
| 1787773248 | 34.44° C | 42% | 1019.7 hPa | 0 mm | - | 661 W/m² | - |
| 1787772943 | 34.44° C | 40% | 1019.7 hPa | 0 mm | - | 537 W/m² | - |
| 1787772639 | 33.89° C | 43% | 1019.8 hPa | 0 mm | - | 541 W/m² | - |
| 1787772337 | 33.89° C | 43% | 1019.8 hPa | 0 mm | - | 866 W/m² | - |
| 1787772036 | 33.33° C | 46% | 1020 hPa | 0 mm | - | 805 W/m² | - |
| 1787771731 | 33.33° C | 47% | 1020.1 hPa | 0 mm | - | 715 W/m² | - |
| 1787771430 | 33.33° C | 44% | 1020.3 hPa | 0 mm | - | 631 W/m² | - |
| 1787771129 | 33.89° C | 43% | 1020.2 hPa | 0 mm | - | 923 W/m² | - |
| 1787770825 | 33.33° C | 44% | 1020.3 hPa | 0 mm | - | 805 W/m² | - |
| 1787770524 | 33.33° C | 47% | 1020.4 hPa | 0 mm | - | 798 W/m² | - |
| 1787770224 | 33.33° C | 47% | 1020.6 hPa | 0 mm | - | 781 W/m² | - |
| 1787769922 | 32.78° C | 48% | 1020.3 hPa | 0 mm | - | 797 W/m² | - |
| 1787769618 | 32.78° C | 49% | 1020.6 hPa | 0 mm | - | 761 W/m² | - |
| 1787769315 | 32.78° C | 49% | 1020.7 hPa | 0 mm | - | 782 W/m² | - |
| 1787769016 | 32.78° C | 50% | 1020.4 hPa | 0 mm | - | 764 W/m² | - |
* Rain latest hour (hover to see other rain measurements)
** Current wind speed in m/s (hover to see current wind gust speed)